Location: Dugenta
(41.1333°N, 14.4500°E)
Time: 13:25:07
(UTC+00:00)

USA 234 - Pass Details

Date: 03 March 2021
Orbit: 1102 x 1105 km, 123.0° (Epoch: 18 April)

Event Time Altitude Azimuth Distance (km) Brightness Sun altitude
Exits shadow 17:52:37 - 52° (NE) 3,396 5.4 -11.5°
Reaches altitude 10° 17:53:47 10° 54° (NE) 2,964 5.1 -11.8°
Maximum altitude 18:00:11 56° 132° (SE) 1,296 3.4 -13.0°
Drops below altitude 10° 18:06:34 10° 210° (SSW) 2,952 5.9 -14.2°
Sets 18:09:06 0° 214° (SW) 3,908 6.6 -14.6°
